Location: Cuzcurrita-R�o Tir�n
(42.5415°N, 2.9642°W)
Time: 18:22:45
(UTC+00:00)

Cosmos 1844 Rocket - Pass Details

Date: 17 January 2021
Orbit: 826 x 843 km, 71.0° (Epoch: 02 March)

Event Time Altitude Azimuth Distance (km) Brightness Sun altitude
Rises 18:57:11 0° 191° (S) 3,385 6.1 -20.0°
Reaches altitude 10° 18:59:39 10° 187° (S) 2,454 5.3 -20.5°
Maximum altitude 19:05:10 59° 109° (ESE) 973 2.7 -21.5°
Enters shadow 19:06:46 43° 56° (NE) 1,173 3.0 -21.8°
